Danbury, CT

11:59 PM EDT on July 27, 2017 (GMT -0400)
Danbury Municipal

Weather History for KDXR - November, 2014

Change the Weather History Date:

Saturday, November 1, 2014

  Actual Average Record
Temperature  
Mean Temperature 44 °F -  
Max Temperature 46 °F 58 °F 81 °F (1950)
Min Temperature 41 °F 37 °F 24 °F (1975)
Degree Days  
Heating Degree Days 22    
Moisture  
Dew Point 34 °F    
Average Humidity 68    
Maximum Humidity 82    
Minimum Humidity 56    
Precipitation  
Precipitation 0.09 in - - ()
Sea Level Pressure  
Sea Level Pressure 29.84 in    
Wind  
Wind Speed 10 mph (North)    
Max Wind Speed 17 mph    
Max Gust Speed 23 mph    
Visibility 10 miles    
Events Rain    
Averages and records for this station are not official NWS values.
T = Trace of Precipitation, MM = Missing Value Source: NWS Daily Summary

Daily Weather History Graph

Daily Weather History Graph

Search for Another Location

Airport or City:

Trip Planner

Search our weather history database for the weather conditions in past years. The results will help you decide how hot, cold, wet, or windy it might be!

Date:

Astronomy

Nov. 01, 2014 Rise Set
Actual Time 7:25 AM EDT 5:49 PM EDT
Civil Twilight 6:56 AM EDT 6:17 PM EDT
Nautical Twilight 6:23 AM EDT 6:50 PM EDT
Astronomical Twilight 5:51 AM EDT 7:22 PM EDT
Moon 2:45 PM EDT (11/1) 1:13 AM EDT (11/1)
Length of Visible Light 11h 21m
Length of Day
10h 23m
Waxing Gibbous, 67% of the Moon is Illuminated
Nov 1
Waxing Gibbous
Nov 6
Full
Nov 14
Last Quarter
Nov 22
New
Nov 29
First Quarter

Hourly Weather History & Observations

Time (EDT) Temp. Windchill Dew Point Humidity Pressure Visibility Wind Dir Wind Speed Gust Speed Precip Events Conditions
12:53 AM 44.1 °F 39.5 °F 39.0 °F 82% 29.91 in 9.0 mi NE 8.1 mph - 0.00 in Rain Light Rain
1:53 AM 44.1 °F 39.5 °F 37.9 °F 79% 29.89 in 10.0 mi NE 8.1 mph - 0.04 in   Overcast
2:53 AM 44.1 °F 39.5 °F 37.0 °F 76% 29.88 in 10.0 mi NE 8.1 mph - N/A   Overcast
3:53 AM 44.1 °F 38.1 °F 36.0 °F 73% 29.86 in 10.0 mi NNE 11.5 mph - N/A   Overcast
4:53 AM 44.1 °F 40.8 °F 36.0 °F 73% 29.86 in 10.0 mi NE 5.8 mph - N/A   Overcast
5:53 AM 45.0 °F 40.6 °F 33.1 °F 63% 29.87 in 10.0 mi NE 8.1 mph - N/A   Overcast
6:53 AM 45.0 °F 38.9 °F 32.0 °F 60% 29.88 in 10.0 mi NNE 12.7 mph 18.4 mph N/A   Overcast
7:53 AM 45.0 °F 37.6 °F 30.0 °F 56% 29.86 in 10.0 mi NNE 17.3 mph 21.9 mph 0.00 in   Overcast
8:53 AM 45.0 °F 40.1 °F 30.0 °F 56% 29.88 in 10.0 mi North 9.2 mph - N/A   Overcast
9:53 AM 46.0 °F 41.4 °F 30.9 °F 56% 29.89 in 10.0 mi NNE 9.2 mph - N/A   Overcast
10:53 AM 46.0 °F 41.4 °F 32.0 °F 58% 29.87 in 10.0 mi NNE 9.2 mph - 0.00 in Rain Light Rain
11:53 AM 45.0 °F 39.3 °F 33.1 °F 63% 29.84 in 10.0 mi North 11.5 mph - 0.00 in Rain Light Rain
12:51 PM 46.4 °F 41.1 °F 33.8 °F 62% 29.82 in 10.0 mi North 11.5 mph 23.0 mph 0.00 in Rain Light Rain
12:53 PM 46.0 °F 40.6 °F 33.1 °F 61% 29.82 in 10.0 mi North 11.5 mph 23.0 mph 0.00 in Rain Light Rain
1:53 PM 46.9 °F - 34.0 °F 61% 29.81 in 10.0 mi NNE 11.5 mph - 0.00 in   Overcast
2:53 PM 46.9 °F - 33.1 °F 59% 29.81 in 10.0 mi NNW 10.4 mph - N/A   Overcast
3:18 PM 46.9 °F - 33.1 °F 59% 29.81 in 10.0 mi North 12.7 mph 19.6 mph 0.00 in Rain Light Rain
3:53 PM 45.0 °F 39.3 °F 35.1 °F 68% 29.82 in 10.0 mi North 11.5 mph 18.4 mph 0.00 in Rain Light Rain
4:01 PM 45.0 °F 39.7 °F 35.1 °F 68% 29.81 in 10.0 mi North 10.4 mph 19.6 mph 0.01 in Rain Light Rain
4:16 PM 44.1 °F 38.6 °F 35.1 °F 71% 29.81 in 8.0 mi North 10.4 mph - 0.02 in Rain Light Rain
4:53 PM 44.1 °F 39.0 °F 35.1 °F 71% 29.82 in 10.0 mi North 9.2 mph - 0.03 in Rain Light Rain
5:28 PM 43.0 °F 37.2 °F 35.1 °F 74% 29.81 in 10.0 mi North 10.4 mph - 0.00 in Rain Light Rain
5:53 PM 43.0 °F 37.7 °F 35.1 °F 74% 29.81 in 10.0 mi North 9.2 mph - 0.01 in Rain Light Rain
6:53 PM 42.1 °F 36.1 °F 35.1 °F 76% 29.84 in 10.0 mi North 10.4 mph - 0.00 in Rain Light Rain
7:53 PM 41.0 °F 35.8 °F 35.1 °F 79% 29.84 in 10.0 mi North 8.1 mph - 0.01 in Rain Light Rain
8:53 PM 41.0 °F 33.9 °F 34.0 °F 76% 29.83 in 10.0 mi North 12.7 mph - 0.00 in Rain Light Rain
9:53 PM 41.0 °F 33.5 °F 34.0 °F 76% 29.83 in 10.0 mi North 13.8 mph - 0.00 in   Overcast
10:53 PM 41.0 °F 34.7 °F 34.0 °F 76% 29.83 in 10.0 mi North 10.4 mph - 0.00 in Rain Light Rain
11:53 PM 41.0 °F 33.9 °F 34.0 °F 76% 29.84 in 10.0 mi North 12.7 mph - 0.00 in Rain Light Rain